Location: DARK SKY Beskydy - Park tmavé oblohy, www.darkskybeskydy.cz
(49.4926°N, 18.5016°E)
Time: 17:00:57
(UTC+02:00)

PCSat - Pass Details

Date: 06 August 2024
Orbit: 781 x 792 km, 67.0° (Epoch: 13 September)

Event Time Altitude Azimuth Distance (km) Brightness Sun altitude
Rises 01:26:35 0° 325° (NW) 3,300 13.5 -23.4°
Reaches altitude 10° 01:29:27 10° 339° (NNW) 2,369 12.8 -23.4°
Maximum altitude 01:33:52 24° 33° (NNE) 1,583 11.8 -23.2°
Drops below altitude 10° 01:38:15 10° 87° (E) 2,362 12.2 -23.1°
Sets 01:41:06 0° 101° (ESE) 3,288 12.8 -23.0°
